Weather in Sharkan

Russia / Udmurt Republic     57°18′04″N   53°52′16″E
temp.,
°C
wind,
m/s
gust,
m/s
humid.,
%
clouds,
%
prec.,
mm/h
press.,
hPa
HPBL,
m
28 september, tue
tue2801:00+2ne613745 0.0 1025405
04:00+1ne612825 0.0 1027351
07:00+1ne612855 0.0 1027388
10:00+5ene711605 0.0 10271107
13:00+8ene6852100 0.0 10271452
16:00+8ne575394 0.0 10271455
19:00+4nne4967100 0.0 1029267
22:00+3nne387694 0.0 1029186
29 september, wed
wed2901:00+2nne378356 0.0 1029148
04:000n35915 0.0 103090
07:000n35925 0.0 1030110
10:00+5nne34645 0.0 1030594
13:00+8nne33515 0.0 10291303
16:00+8n344899 0.0 10281428
19:00+4n226882 0.0 102928
22:00+5n2270100 0.0 102957
30 september, thu
thu3001:00+4n2374100 0.0 102984
04:00+4nnw2384100 0.0 1029108
07:00+4wnw2390100 0.0 1029125
10:00+6nw3373100 0.0 1028458
13:00+8wnw4564100 0.0 10271158
16:00+7wnw4676100 0.1 1027955
19:00+6wnw4789100 0.0 1026411
22:00+6wnw3891100 0.0 1026366
1 october, fri
fri101:00+6wnw3694100 0.1 1025275
04:00+6nw369473 0.1 1026235
07:00+6nnw3792100 0.2 1027273
10:00+7nnw2488100 0.3 1027268
13:00+7nw2389100 0.3 1028209
16:00+7nnw1387100 0.3 1028159
19:00+7nnw1289100 0.0 102936
22:00+7nnw2291100 0.0 102931
2 october, sat
sat201:00+7nw1292100 0.0 102930
04:00+7nw239193 0.0 103085
07:00+7nw229271 0.0 103078
10:00+9nw247374 0.0 1030454
13:00+11nw3462100 0.0 10301074
16:00+11wnw346929 0.1 1030708
19:00+9w2274100 0.0 103148
22:00+9nw2269100 0.0 103121